Regional Weather Roundup
Issued by NWS

Home | Current Version | Previous Version | Graphics & Text | Print | Product List | Glossary Off
Versions: 1 2 3 4 5 6 7 8 9 10 11 12 13 14 15 16 17 18 19 20 21 22 23 24 25 26 27 28 29 30 31 32 33 34 35 36 37 38 39 40 41 42 43 44 45 46 47 48 49 50

000
ASUS43 KMKX 211100
RWRWI

WISCONSIN REGIONAL WEATHER ROUNDUP
NATIONAL WEATHER SERVICE MILWAUKEE/SULLIVAN WI
600 AM CDT MON AUG 21 2017

NOTE: "FAIR" INDICATES FEW OR NO CLOUDS BELOW 12,000 FEET WITH NO
SIGNIFICANT WEATHER AND/OR OBSTRUCTIONS TO VISIBILITY.

WIZ001-002-006>008-014>016-023>028-211200-
NORTHWEST WISCONSIN

CITY           SKY/WX    TMP DP  RH WIND       PRES   REMARKS
SUPERIOR ARPT    N/A     53  52  97 CALM      30.06R
ASHLAND        CLOUDY    53  52  96 SW3       30.07R
HAYWARD        PTCLDY    51  50  96 N3        30.08R
SIREN          CLOUDY    55  54  95 CALM      30.07S
CUMBERLAND     MOCLDY    55  54  94 CALM      30.06F
RICE LAKE      CLEAR     57  56  97 CALM      30.07F
CHETEK         CLOUDY    63  61  92 CALM      30.06S
LADYSMITH      CLOUDY    61  59  93 CALM      30.08S
EAU CLAIRE     NOT AVBL
MENOMONIE      CLOUDY    67  60  79 N3        30.04S
NEW RICHMOND   PTCLDY    60  58  94 CALM      30.05S
OSCEOLA        CLEAR     56  56 100 CALM      30.07S
$$

WIZ003>005-009-010-017-018-211200-
NORTH CENTRAL WISCONSIN

CITY           SKY/WX    TMP DP  RH WIND       PRES   REMARKS
MANITOWISH WTR PTCLDY    51  51 100 CALM      30.09R
ARBOR VITAE    CLEAR     57  56  95 CALM      30.09S FOG
WOODRUFF       CLEAR     57  56  95 CALM      30.09S FOG
RHINELANDER    CLOUDY    62  62 100 N3        30.09R
EAGLE RIVER    PTCLDY    57  57 100 CALM      30.09R FOG
LAND O LAKES   FOG       53  53 100 CALM      30.11R VSB 1
PHILLIPS       CLOUDY    56  56 100 CALM      30.08R FOG
TOMAHAWK         N/A     58  57  96 CALM      30.08S FOG
MEDFORD        CLOUDY    62  61  98 NE3       30.07R
MERRILL        MOCLDY    63  63 100 CALM      30.08R
$$

WIZ029-030-035-036-043>047-211200-
CENTRAL WISCONSIN

CITY           SKY/WX    TMP DP  RH WIND       PRES   REMARKS
WAUSAU         CLOUDY    65  64  97 CALM      30.05R FOG
MOSINEE        FOG       63  63 100 CALM      30.07R VSB 1/2
MARSHFIELD     CLOUDY    65  63  93 CALM      30.06R FOG
STEVENS POINT  CLOUDY    63  63 100 CALM      30.06S FOG
WAUPACA        CLOUDY    66  65  97 CALM      30.04S
WAUTOMA        CLOUDY    60  60 100 CALM      30.06R
WISC RAPIDS    CLOUDY    65  65 100 CALM      30.06R FOG
CAMP DOUGLAS   NOT AVBL
$$

WIZ011>013-019>022-031-037>040-048>050-211200-
NORTHEAST WISCONSIN

CITY           SKY/WX    TMP DP  RH WIND       PRES   REMARKS
ANTIGO         MOCLDY    60  60 100 CALM      30.08R FOG
SHAWANO        CLOUDY    67  65  94 CALM      30.05R
OCONTO         CLOUDY    64  63  98 CALM      30.04R
STURGEON BAY   CLOUDY    69  67  93 W6        30.04S
GREEN BAY      FOG       63  63 100 CALM      30.04S VSB 1/2
MANITOWOC      CLOUDY    64  63  94 CALM      30.06R
APPLETON       MOCLDY    64  64 100 CALM      30.04R
CLINTONVILLE   MOCLDY    63  63 100 CALM      30.04S
OSHKOSH        CLOUDY    64  62  93 S3        30.05R FOG
$$

WIZ032>034-041-042-053>061-211200-
SOUTHWEST WISCONSIN

CITY           SKY/WX    TMP DP  RH WIND       PRES   REMARKS
LA CROSSE      CLOUDY    71  67  87 SE5       30.06R
SPARTA         CLOUDY    60  60 100 CALM      30.07R
VIROQUA        CLOUDY    63  63 100 CALM      30.09R
BOSCOBEL       FOG       63  62  97 CALM      30.08R VSB 1/2
PRAIRIE DU CHI CLOUDY    64  62  93 CALM      30.07R
PLATTEVILLE    CLOUDY    65  65 100 CALM      30.07R
$$

WIZ056-057-062-063-064-067-068-211200-
SOUTH CENTRAL WISCONSIN

CITY           SKY/WX    TMP DP  RH WIND       PRES   REMARKS
REEDSBURG      CLOUDY    61  61 100 CALM      30.06R
BARABOO/DELLS  CLOUDY    62  61  96 CALM      30.06R
LONE ROCK      FOG       63  63 100 W3        30.06R VSB 1/4
MINERAL POINT  CLOUDY    64  64 100 CALM      30.07R
MADISON        CLOUDY    63  62  97 N3        30.05R
MIDDLETON      MOCLDY    62  62 100 CALM      30.06R
WATERTOWN      MOCLDY    64  64 100 CALM      30.06R FOG
MONROE         MOCLDY    66  64  94 CALM      30.06R
JANESVILLE     MOCLDY    64  64 100 CALM      30.05S FOG
$$

WIZ051-052-058>065-066-070>072-211200-
SOUTHEAST WISCONSIN

CITY           SKY/WX    TMP DP  RH WIND       PRES   REMARKS
MILWAUKEE      CLOUDY    70  67  90 NW3       30.05R
WAUKESHA       CLEAR     63  63 100 CALM      30.07R FOG
MILWAUKEE/TIMM CLOUDY    64  61  88 CALM      30.06R
RACINE         CLOUDY    68  68 100 S5        30.07R
KENOSHA        CLOUDY    69  67  93 S3        30.06R
FOND DU LAC    MOCLDY    64  62  93 S5        30.06R FOG
SHEBOYGAN      CLOUDY    62  62 100 SW3       30.06R FOG
WEST BEND      CLOUDY    63  63 100 CALM      30.06R FOG
JUNEAU         CLOUDY    63  63  99 CALM      30.07R FOG
$$

LSZ147-162-211200-
LAKE SUPERIOR

STATION/POSITION TIME  TEMP    WIND        PRES    WAVE
                       AIR SEA DIR/SP/G            HT/PER
                 (UTC) (F)     (DEG/KT/KT) (MB)    (FT/S)
W MID LAKE BUOY  0950   62 60  270/  8/  8 1015.9R   1
DEVILS ISLAND    1000   62     210/  9/ 10 1017.0R
SAXON HARBOR     1030   57     180/  6/  7 1017.3R
$$

LMZ867-665-643>646-211200-
LAKE MICHIGAN

STATION/POSITION TIME  TEMP    WIND        PRES    WAVE
                       AIR SEA DIR/SP/G            HT/PER
                 (UTC) (F)     (DEG/KT/KT) (MB)    (FT/S)
S GREEN BAY BUOY 1030   71 71  240/  6/  6 1016.7R
N MID LAKE BUOY  0950   68 67  210/  6/  8 1016.7R   2/ 5
NORTHPORT PIER   1040   69     250/  3/  5 1016.6R
KEWAUNEE LAKESHO 1030   67     150/  8/ 10 1016.1S
SHEBOYGAN LAKESH 1000   68     330/  3/  3 1016.9R
PORT WASHINGTON  1030   70     280/  3/  5 1017.9R
ATWATER BUOY     0909   70 70   CALM  /  2 1016.9R
MILWAUKEE LAKESH 1030   71     320/  3/  3   N/A
S MID LAKE BUOY  0950   74 72  200/ 12/ 12 1016.7R   1/ 3
KENOSHA   LAKESH 1000   73     180/  5/  6 1016.9
$$

TC  - TEMPERATURE IN CELSIUS
VSB - VISIBILITY IN STATUTE MILES
WCI - WIND CHILL INDEX
HX  - HEAT INDEX





USA.gov is the U.S. government's official web portal to all federal, state and local government web resources and services.